Time,TemperatureF,DewpointF,PressureIn,WindDirection,WindDirectionDegrees,WindSpeedMPH,WindSpeedGustMPH,Humidity,HourlyPrecipIn,Conditions,Clouds,dailyrainin,SoftwareType,DateUTC
2013-01-28 00:07:00,37.0,10.6,29.65,SW,221,0.0,0.0,33,0.00,,,0.00,VWS V14.01,2013-01-28 05:07:00,
2013-01-28 00:22:00,36.9,11.1,29.65,SW,221,0.0,0.0,34,0.00,,,0.00,VWS V14.01,2013-01-28 05:22:00,
2013-01-28 00:37:00,36.5,12.1,29.65,SW,221,0.0,0.0,36,0.00,,,0.00,VWS V14.01,2013-01-28 05:37:00,
2013-01-28 00:52:00,36.5,13.3,29.65,SW,221,0.0,0.0,38,0.00,,,0.00,VWS V14.01,2013-01-28 05:52:00,
2013-01-28 01:07:00,36.3,14.3,29.65,SW,221,0.0,0.0,40,0.00,,,0.00,VWS V14.01,2013-01-28 06:07:00,
2013-01-28 01:22:00,36.1,14.2,29.62,SW,221,0.0,0.0,40,0.00,,,0.00,VWS V14.01,2013-01-28 06:22:00,
2013-01-28 01:37:00,36.1,14.7,29.62,SW,221,0.0,0.0,41,0.04,,,0.04,VWS V14.01,2013-01-28 06:37:00,
2013-01-28 01:52:00,36.3,16.0,29.62,SW,221,0.0,0.0,43,0.04,,,0.04,VWS V14.01,2013-01-28 06:52:00,
2013-01-28 02:07:00,36.5,16.7,29.62,SW,221,0.0,0.0,44,0.04,,,0.04,VWS V14.01,2013-01-28 07:07:00,
2013-01-28 02:22:00,36.9,18.5,29.62,SW,221,0.0,0.0,47,0.08,,,0.08,VWS V14.01,2013-01-28 07:22:00,
2013-01-28 02:37:00,37.0,21.1,29.62,SW,229,0.0,0.0,52,0.12,,,0.12,VWS V14.01,2013-01-28 07:37:00,
2013-01-28 02:52:00,37.2,21.2,29.62,SW,229,0.0,0.0,52,0.08,,,0.12,VWS V14.01,2013-01-28 07:52:00,
2013-01-28 03:07:00,37.0,21.1,29.62,SW,229,0.0,0.0,52,0.16,,,0.20,VWS V14.01,2013-01-28 08:07:00,
2013-01-28 03:22:00,37.0,21.1,29.62,SW,229,0.0,0.0,52,0.16,,,0.20,VWS V14.01,2013-01-28 08:22:00,
2013-01-28 03:37:00,37.0,21.1,29.59,SW,229,0.0,0.0,52,0.12,,,0.20,VWS V14.01,2013-01-28 08:37:00,
2013-01-28 03:52:00,37.2,21.2,29.59,SW,229,0.0,0.0,52,0.12,,,0.24,VWS V14.01,2013-01-28 08:52:00,
2013-01-28 04:07:00,37.4,21.4,29.59,SW,229,0.0,0.0,52,0.12,,,0.24,VWS V14.01,2013-01-28 09:07:00,
2013-01-28 04:22:00,37.6,22.0,29.59,SW,229,0.0,0.0,53,0.04,,,0.24,VWS V14.01,2013-01-28 09:22:00,
2013-01-28 04:37:00,37.8,22.2,29.59,SW,229,0.0,0.0,53,0.04,,,0.24,VWS V14.01,2013-01-28 09:37:00,
2013-01-28 04:52:00,37.8,22.6,29.59,SW,229,0.0,0.0,54,0.04,,,0.24,VWS V14.01,2013-01-28 09:52:00,
2013-01-28 05:07:00,37.9,23.2,29.59,SW,229,0.0,0.0,55,0.04,,,0.28,VWS V14.01,2013-01-28 10:07:00,
2013-01-28 05:22:00,38.3,24.0,29.59,SW,229,0.0,0.0,56,0.04,,,0.28,VWS V14.01,2013-01-28 10:22:00,
2013-01-28 05:37:00,38.1,23.8,29.59,SW,229,0.0,0.0,56,0.04,,,0.28,VWS V14.01,2013-01-28 10:37:00,
2013-01-28 05:52:00,38.3,24.4,29.59,SW,229,0.0,0.0,57,0.04,,,0.28,VWS V14.01,2013-01-28 10:52:00,
2013-01-28 06:07:00,38.5,25.0,29.59,SW,229,0.0,0.0,58,0.04,,,0.28,VWS V14.01,2013-01-28 11:07:00,
2013-01-28 06:22:00,38.5,25.4,29.59,SW,229,0.0,0.0,59,0.00,,,0.28,VWS V14.01,2013-01-28 11:22:00,
2013-01-28 06:37:00,38.7,26.0,29.59,SW,229,0.0,0.0,60,0.00,,,0.28,VWS V14.01,2013-01-28 11:37:00,
2013-01-28 06:52:00,38.7,26.0,29.59,SW,229,0.0,0.0,60,0.00,,,0.28,VWS V14.01,2013-01-28 11:52:00,
2013-01-28 07:07:00,38.5,26.2,29.59,SW,229,0.0,0.0,61,0.00,,,0.28,VWS V14.01,2013-01-28 12:07:00,
2013-01-28 07:22:00,38.1,26.3,29.59,SW,229,0.0,0.0,62,0.00,,,0.28,VWS V14.01,2013-01-28 12:22:00,
2013-01-28 07:37:00,37.6,25.8,29.59,SW,229,0.0,232.4,62,0.00,,,0.28,VWS V14.01,2013-01-28 12:37:00,
2013-01-28 07:52:00,37.9,26.9,29.59,SW,229,0.0,0.0,64,0.00,,,0.28,VWS V14.01,2013-01-28 12:52:00,
2013-01-28 08:07:00,38.3,27.2,29.59,SW,229,0.0,0.0,64,0.00,,,0.28,VWS V14.01,2013-01-28 13:07:00,
2013-01-28 08:22:00,38.7,27.9,29.59,SW,229,0.0,0.0,65,0.00,,,0.28,VWS V14.01,2013-01-28 13:22:00,
2013-01-28 08:37:00,39.2,28.4,29.59,SW,229,0.0,0.0,65,0.00,,,0.28,VWS V14.01,2013-01-28 13:37:00,
2013-01-28 08:52:00,39.7,29.3,29.59,SW,229,0.0,0.0,66,0.00,,,0.28,VWS V14.01,2013-01-28 13:52:00,
2013-01-28 09:07:00,40.5,30.8,29.56,SW,229,0.0,0.0,68,0.00,,,0.28,VWS V14.01,2013-01-28 14:07:00,
2013-01-28 09:22:00,41.5,32.1,29.56,SW,229,0.0,0.0,69,0.00,,,0.28,VWS V14.01,2013-01-28 14:22:00,
2013-01-28 09:37:00,42.1,32.7,29.56,SW,229,0.0,0.0,69,0.00,,,0.28,VWS V14.01,2013-01-28 14:37:00,
2013-01-28 09:52:00,42.3,32.8,29.56,SW,229,0.0,0.0,69,0.00,,,0.28,VWS V14.01,2013-01-28 14:52:00,
2013-01-28 10:07:00,43.0,33.9,29.56,SW,229,0.0,0.0,70,0.00,,,0.28,VWS V14.01,2013-01-28 15:07:00,
2013-01-28 10:22:00,43.7,34.6,29.56,SW,229,0.0,0.0,70,0.00,,,0.28,VWS V14.01,2013-01-28 15:22:00,
2013-01-28 10:37:00,43.3,33.5,29.56,East,84,0.0,0.0,68,0.00,,,0.28,VWS V14.01,2013-01-28 15:37:00,
2013-01-28 10:52:00,44.8,35.6,29.56,East,84,0.0,0.0,70,0.00,,,0.28,VWS V14.01,2013-01-28 15:52:00,
2013-01-28 11:07:00,45.3,36.1,29.56,East,84,0.0,0.0,70,0.00,,,0.28,VWS V14.01,2013-01-28 16:07:00,
2013-01-28 11:22:00,46.8,36.8,29.53,East,84,0.0,0.0,68,0.00,,,0.28,VWS V14.01,2013-01-28 16:22:00,
2013-01-28 11:37:00,48.0,38.0,29.53,East,84,0.0,0.0,68,0.00,,,0.28,VWS V14.01,2013-01-28 16:37:00,
2013-01-28 11:52:00,49.5,37.0,29.53,East,84,0.0,0.0,62,0.00,,,0.28,VWS V14.01,2013-01-28 16:52:00,
2013-01-28 12:07:00,49.3,31.0,29.50,East,84,0.0,0.0,49,0.00,,,0.28,VWS V14.01,2013-01-28 17:07:00,
2013-01-28 12:22:00,49.8,28.2,29.50,East,84,0.0,0.0,43,0.00,,,0.28,VWS V14.01,2013-01-28 17:22:00,
2013-01-28 12:37:00,48.9,25.7,29.50,East,84,0.0,0.0,40,0.00,,,0.28,VWS V14.01,2013-01-28 17:37:00,
2013-01-28 12:52:00,48.0,24.3,29.47,East,84,0.0,0.0,39,0.00,,,0.28,VWS V14.01,2013-01-28 17:52:00,
2013-01-28 13:07:00,48.0,24.9,29.47,East,84,0.0,0.0,40,0.00,,,0.28,VWS V14.01,2013-01-28 18:07:00,
2013-01-28 13:22:00,49.6,27.5,29.47,East,84,0.0,0.0,42,0.00,,,0.28,VWS V14.01,2013-01-28 18:22:00,
2013-01-28 13:37:00,50.4,27.6,29.47,East,84,0.0,0.0,41,0.00,,,0.28,VWS V14.01,2013-01-28 18:37:00,
2013-01-28 13:52:00,52.7,30.3,29.44,East,84,0.0,0.0,42,0.00,,,0.28,VWS V14.01,2013-01-28 18:52:00,
2013-01-28 14:07:00,54.9,29.1,29.44,East,84,0.0,0.0,37,0.00,,,0.28,VWS V14.01,2013-01-28 19:07:00,
2013-01-28 14:22:00,56.1,29.5,29.44,East,84,0.0,0.0,36,0.00,,,0.28,VWS V14.01,2013-01-28 19:22:00,
2013-01-28 14:37:00,58.5,30.9,29.44,WNW,295,0.0,0.0,35,0.00,,,0.28,VWS V14.01,2013-01-28 19:37:00,
2013-01-28 14:52:00,59.5,28.9,29.44,WNW,295,0.0,0.0,31,0.00,,,0.28,VWS V14.01,2013-01-28 19:52:00,
2013-01-28 15:07:00,59.7,25.7,29.44,WNW,295,0.0,0.0,27,0.00,,,0.28,VWS V14.01,2013-01-28 20:07:00,
2013-01-28 15:22:00,59.7,24.8,29.44,WNW,295,0.0,0.0,26,0.00,,,0.28,VWS V14.01,2013-01-28 20:22:00,
2013-01-28 15:37:00,59.2,24.3,29.44,WNW,295,0.0,0.0,26,0.00,,,0.28,VWS V14.01,2013-01-28 20:37:00,
2013-01-28 15:52:00,58.5,25.5,29.44,WNW,295,0.0,0.0,28,0.00,,,0.28,VWS V14.01,2013-01-28 20:52:00,
2013-01-28 16:07:00,56.7,26.4,29.44,WSW,248,0.0,0.0,31,0.00,,,0.28,VWS V14.01,2013-01-28 21:07:00,
2013-01-28 16:22:00,54.3,27.3,29.44,WSW,248,0.0,0.0,35,0.00,,,0.28,VWS V14.01,2013-01-28 21:22:00,
2013-01-28 16:37:00,54.1,28.5,29.44,WSW,248,0.0,0.0,37,0.00,,,0.28,VWS V14.01,2013-01-28 21:37:00,
2013-01-28 16:52:00,52.0,27.2,29.47,WSW,248,0.0,0.0,38,0.04,,,0.31,VWS V14.01,2013-01-28 21:52:00,
2013-01-28 17:07:00,50.7,27.9,29.47,WSW,248,0.0,0.0,41,0.04,,,0.31,VWS V14.01,2013-01-28 22:07:00,
2013-01-28 17:22:00,50.2,28.6,29.47,WSW,248,0.0,0.0,43,0.04,,,0.31,VWS V14.01,2013-01-28 22:22:00,
2013-01-28 17:37:00,49.8,29.9,29.47,WSW,248,0.0,0.0,46,0.04,,,0.31,VWS V14.01,2013-01-28 22:37:00,
2013-01-28 17:52:00,49.5,30.1,29.47,WSW,248,0.0,0.0,47,0.04,,,0.31,VWS V14.01,2013-01-28 22:52:00,
2013-01-28 18:07:00,49.3,30.4,29.47,WSW,248,0.0,0.0,48,0.00,,,0.31,VWS V14.01,2013-01-28 23:07:00,
2013-01-28 18:22:00,48.2,30.0,29.47,WSW,248,0.0,0.0,49,0.00,,,0.31,VWS V14.01,2013-01-28 23:22:00,
2013-01-28 18:37:00,49.3,32.4,29.47,WSW,248,0.0,0.0,52,0.00,,,0.31,VWS V14.01,2013-01-28 23:37:00,
2013-01-28 18:52:00,47.7,30.9,29.50,WSW,248,0.0,0.0,52,0.00,,,0.31,VWS V14.01,2013-01-28 23:52:00,
2013-01-28 19:07:00,47.3,31.0,29.50,WSW,248,0.0,0.0,53,0.00,,,0.31,VWS V14.01,2013-01-29 00:07:00,
2013-01-28 19:22:00,47.5,32.1,29.50,WSW,248,0.0,0.0,55,0.00,,,0.31,VWS V14.01,2013-01-29 00:22:00,
2013-01-28 19:37:00,47.3,32.8,29.50,WSW,248,0.0,0.0,57,0.00,,,0.31,VWS V14.01,2013-01-29 00:37:00,
2013-01-28 19:52:00,47.3,33.7,29.50,WSW,248,0.0,0.0,59,0.00,,,0.31,VWS V14.01,2013-01-29 00:52:00,
2013-01-28 20:07:00,46.9,33.8,29.50,WSW,248,0.0,0.0,60,0.00,,,0.31,VWS V14.01,2013-01-29 01:07:00,
2013-01-28 20:22:00,46.4,33.7,29.47,WSW,248,0.0,0.0,61,0.00,,,0.31,VWS V14.01,2013-01-29 01:22:00,
2013-01-28 20:37:00,46.8,35.2,29.47,WSW,248,0.0,0.0,64,0.00,,,0.31,VWS V14.01,2013-01-29 01:37:00,
2013-01-28 20:52:00,47.3,35.0,29.47,WSW,248,0.0,0.0,62,0.00,,,0.31,VWS V14.01,2013-01-29 01:52:00,
2013-01-28 21:07:00,48.0,37.6,29.47,WSW,248,0.0,0.0,67,0.00,,,0.31,VWS V14.01,2013-01-29 02:07:00,
2013-01-28 21:22:00,48.0,38.0,29.47,WSW,248,0.0,0.0,68,0.00,,,0.31,VWS V14.01,2013-01-29 02:22:00,
2013-01-28 21:37:00,47.8,37.4,29.47,WSW,248,0.0,0.0,67,0.00,,,0.31,VWS V14.01,2013-01-29 02:37:00,
2013-01-28 21:52:00,47.7,37.6,29.47,WSW,248,0.0,0.0,68,0.00,,,0.31,VWS V14.01,2013-01-29 02:52:00,
2013-01-28 22:07:00,47.3,37.7,29.47,WSW,248,0.0,0.0,69,0.00,,,0.31,VWS V14.01,2013-01-29 03:07:00,
2013-01-28 22:22:00,47.1,37.5,29.47,WSW,248,0.0,0.0,69,0.00,,,0.31,VWS V14.01,2013-01-29 03:22:00,
2013-01-28 22:37:00,47.5,37.8,29.47,WSW,248,0.0,0.0,69,0.00,,,0.31,VWS V14.01,2013-01-29 03:37:00,
2013-01-28 22:52:00,46.8,37.5,29.47,WSW,248,0.0,0.0,70,0.00,,,0.31,VWS V14.01,2013-01-29 03:52:00,
2013-01-28 23:07:00,47.5,38.6,29.47,WSW,248,0.0,0.0,71,0.00,,,0.31,VWS V14.01,2013-01-29 04:07:00,
2013-01-28 23:22:00,47.7,39.1,29.47,WSW,248,0.0,0.0,72,0.00,,,0.31,VWS V14.01,2013-01-29 04:22:00,
2013-01-28 23:37:00,48.4,39.4,29.47,WSW,248,0.0,0.0,71,0.00,,,0.31,VWS V14.01,2013-01-29 04:37:00,
2013-01-28 23:52:00,47.1,37.5,29.47,WSW,248,0.0,0.0,69,0.00,,,0.00,VWS V14.01,2013-01-29 04:52:00,